Location: Gollag?dem
(16.8053°N, 80.8024°E)
Time: 16:18:51
(UTC+00:00)

SJ-6B - Pass Details

Date: 13 August 2020
Orbit: 509 x 582 km, 97.6° (Epoch: 18 September)

Event Time Altitude Azimuth Distance (km) Brightness Sun altitude
Exits shadow 14:42:42 66° 28° (NNE) 625 2.9 -23.3°
Drops below altitude 10° 14:46:18 10° 353° (N) 1,860 5.9 -24.1°
Sets 14:48:25 0° 352° (N) 2,747 6.8 -24.6°
